Location: Anaheim Mobile Home Estates
(33.8153°N, 117.9967°W)
Time: 17:35:27
(UTC+00:00)

Cosmos 1733 Rocket - Pass Details

Date: 05 August 2024
Orbit: 598 x 624 km, 82.5° (Epoch: 06 September)

Event Time Altitude Azimuth Distance (km) Brightness Sun altitude
Exits shadow 12:00:53 10° 195° (SSW) 1,960 5.2 -13.2°
Maximum altitude 12:05:12 66° 277° (W) 683 3.1 -12.4°
Drops below altitude 10° 12:09:36 10° 0° (N) 1,995 6.1 -11.7°
Sets 12:11:51 0° 3° (N) 2,901 7.0 -11.2°
